EHI
0 0 0 0 0 0 0 0 0 0 0 0 0 0 1 1 1 1 4 6 6 6 7 11 19 31 39 39 38 40 44 47 44 40 35 27 20 13 7 4 1 1 2 4
0 0 0 0 0 0 0 0 0 0 0 0 0 1 3 5 6 8 11 11 10 8 8 12 21 31 38 39 37 38 44 50 51 51 44 32 22 14 8 4 1 0 1 3
0 0 0 0 0 0 0 0 0 0 0 0 0 1 4 9 16 21 22 21 19 16 14 18 25 32 36 37 36 36 43 53 58 59 54 43 31 22 15 8 3 0 0 1
0 0 0 0 0 0 0 0 0 0 0 0 0 1 3 9 19 26 27 26 25 22 21 22 27 32 33 33 31 33 41 50 56 60 59 52 42 32 22 13 5 1 0 0
0 0 0 0 0 0 0 0 0 0 0 0 0 1 3 7 14 19 20 20 18 19 21 23 24 26 25 23 24 28 34 41 49 56 56 51 42 32 21 12 4 1 0 0
0 0 0 0 0 0 0 0 0 0 0 0 0 1 3 6 8 9 10 9 9 12 17 19 19 19 18 17 18 23 27 32 38 43 42 37 29 22 14 8 3 1 0 0
0 0 0 0 0 0 0 0 0 0 0 0 0 1 3 6 6 4 3 3 3 6 9 11 11 11 13 14 14 16 20 24 26 26 24 20 15 12 9 6 3 1 0 0
0 0 0 0 0 0 0 0 0 0 0 0 0 2 3 3 3 1 1 0 1 2 3 3 4 4 6 8 9 9 13 16 16 13 10 7 6 5 4 3 1 0 0 0
0 0 0 0 0 0 0 0 0 0 0 0 0 1 2 1 0 0 0 0 0 0 0 0 0 0 1 2 3 4 6 7 7 5 4 3 3 2 1 1 0 0 0 0
0 0 0 0 0 0 0 0 0 0 0 0 0 0 0 0 0 0 0 0 0 0 0 0 0 0 0 0 0 1 2 3 2 2 2 2 1 1 0 0 0 0 0 0
0 0 0 0 0 0 0 0 0 0 0 0 0 0 0 0 0 0 0 0 0 0 0 0 0 0 0 0 0 0 1 1 1 1 1 1 0 0 0 0 0 0 0 0
0 0 0 0 0 0 0 0 0 0 0 0 0 0 0 0 0 0 0 0 0 0 0 0 0 0 0 0 0 0 0 0 0 0 0 0 0 0 0 0 0 0 0 0
0 0 0 0 0 0 0 0 0 0 0 0 0 0 0 0 0 0 0 0 0 0 0 0 0 0 0 0 0 0 0 0 0 0 0 0 0 0 0 0 0 0 0 0
0 0 0 0 0 0 0 0 0 0 0 0 0 0 0 0 0 0 0 0 0 0 0 0 0 0 0 0 0 0 0 0 0 0 0 0 0 0 0 0 0 0 0 0
0 0 0 0 0 0 0 0 0 0 0 0 0 0 0 0 0 0 0 0 0 0 0 0 0 0 0 0 0 0 0 0 0 0 0 0 0 0 0 0 0 0 0 0
0 0 0 0 0 0 0 0 0 0 0 0 0 0 0 0 0 0 0 0 0 0 0 0 0 0 0 0 0 0 0 0 0 0 0 0 0 0 0 0 0 0 0 0
0 0 0 0 0 0 0 0 0 0 0 0 0 0 0 0 0 0 0 0 0 0 0 0 0 0 0 0 0 0 0 0 0 0 0 0 0 0 0 0 0 0 0 0
0 0 0 0 0 0 0 0 0 0 0 0 0 0 0 0 0 0 0 0 0 0 0 0 0 0 0 0 0 0 0 0 0 0 0 0 0 0 0 0 0 0 0 0
0 0 0 0 0 0 0 0 0 0 0 0 0 0 0 0 0 0 0 0 0 0 0 0 0 0 0 0 0 0 0 0 0 0 0 0 0 0 0 0 0 0 0 0
0 0 0 0 0 0 0 0 0 0 0 0 0 0 0 0 0 0 0 0 0 0 0 0 0 0 0 0 0 0 0 0 0 0 0 0 0 0 0 0 0 0 0 0
0 0 0 0 0 0 0 0 0 0 0 0 0 0 0 0 0 0 0 0 0 0 0 0 0 0 0 0 0 0 0 0 0 0 0 0 0 0 0 0 0 0 0 0
0 0 0 0 0 0 0 0 0 0 0 0 0 0 0 0 0 0 0 0 0 0 0 0 0 0 0 0 0 0 0 0 0 0 0 0 0 0 0 0 0 0 0 0
0 0 0 0 0 0 0 0 0 0 0 0 0 0 0 0 0 0 0 0 0 0 0 0 0 0 0 0 0 0 0 0 0 0 0 0 0 0 0 0 0 0 0 0
0 0 0 0 0 0 0 0 0 0 0 0 0 0 0 0 0 0 0 0 0 0 0 0 0 0 0 0 0 0 0 0 0 0 0 0 0 0 0 0 0 0 0 0
0 0 0 0 0 0 0 0 0 0 0 0 0 0 0 0 0 0 0 0 0 0 0 0 0 0 0 0 0 0 0 0 0 0 0 0 0 0 0 0 0 0 0 0
0 0 0 0 0 0 0 0 0 0 0 0 0 0 0 0 0 0 0 0 0 0 0 0 0 0 0 0 0 0 0 0 0 0 0 0 0 0 0 0 0 0 0 0
Wind_Speed
3 4 3 7 8 5 2 1 4 6 4 2 3 4 6 4 2 5 5 7 8 9 6 5 6 8 8 9 10 11 12 11 9 7 6 5 5 4 3 3 4 5 5 6
4 2 7 5 3 3 2 3 5 6 3 2 3 4 5 5 3 0 2 3 5 3 2 3 3 4 7 9 9 9 10 11 11 8 6 3 4 3 2 2 2 3 5 5
5 6 3 4 3 3 3 3 4 5 6 4 2 5 7 6 7 9 8 6 5 3 2 2 2 1 2 4 6 7 9 9 9 8 6 5 4 3 3 3 3 3 5 5
4 5 3 3 3 4 4 6 5 3 2 4 2 2 5 5 9 11 10 10 10 8 7 6 6 4 3 1 1 3 6 7 8 9 9 9 7 5 4 4 4 5 5 6
5 3 4 5 7 8 7 4 3 2 2 2 2 3 3 4 6 8 10 11 11 10 10 10 9 6 5 4 3 2 4 6 7 8 9 8 5 4 5 6 7 6 5 5
6 4 5 7 5 7 4 3 4 4 4 1 2 4 2 3 4 6 9 11 11 11 11 11 10 9 8 6 5 4 5 5 6 7 8 8 8 8 8 7 6 5 4 5
5 4 4 3 1 1 4 5 4 3 3 3 1 5 3 5 7 8 9 10 10 11 11 11 12 11 10 9 7 5 6 5 6 7 7 7 7 8 9 7 6 6 5 4
2 6 3 2 5 5 5 9 7 5 4 2 3 4 4 7 8 9 9 9 11 11 11 12 12 11 10 10 9 7 7 7 7 8 7 7 7 6 6 7 7 7 6 6
2 5 4 2 2 6 6 4 6 6 2 2 2 4 4 6 8 9 9 9 10 10 11 11 11 11 11 11 11 10 10 10 10 10 10 9 9 9 10 10 10 8 8 8
3 3 5 4 5 5 4 7 6 6 5 2 2 2 1 5 7 6 6 7 7 8 10 10 11 11 11 11 11 12 12 12 12 12 10 10 11 11 11 11 12 11 10 10
2 1 5 5 4 1 3 4 5 5 5 6 3 0 3 4 8 8 6 6 7 8 9 9 9 10 11 12 12 12 13 13 13 13 13 13 13 13 13 12 12 11 11 11
1 3 2 2 2 1 4 3 5 5 3 4 5 2 3 6 8 8 8 7 7 8 9 9 10 11 11 12 12 12 12 13 12 12 14 15 14 14 14 14 13 13 12 12
3 4 3 4 6 6 6 4 3 5 6 4 5 4 3 8 8 7 7 7 6 7 9 9 10 11 11 11 12 12 12 12 12 12 14 14 14 14 14 13 13 13 12 12
5 5 4 3 2 1 4 5 3 4 4 4 4 8 6 7 7 6 7 7 6 7 8 9 10 10 11 11 11 11 12 12 12 13 14 14 13 13 12 12 12 12 11 11
5 5 4 5 5 6 6 7 7 5 3 5 6 7 6 6 6 7 7 8 8 9 10 11 10 10 10 11 11 11 11 11 11 12 13 12 11 11 11 12 11 11 10 10
5 5 4 5 5 8 9 10 7 6 5 7 8 5 4 7 7 7 8 8 9 9 10 11 11 10 10 10 10 10 10 10 10 11 11 11 11 11 10 10 10 9 8 7
3 4 3 1 2 3 7 7 5 5 4 1 3 5 7 8 8 7 7 8 9 10 10 10 9 9 9 8 8 9 9 9 10 10 10 10 9 9 8 8 8 7 6 5
5 4 4 2 3 3 1 1 3 5 6 5 7 8 9 10 9 8 7 8 10 10 9 9 8 8 8 8 8 8 8 9 9 9 8 8 7 7 7 7 7 5 4 4
3 6 5 4 3 1 1 1 1 2 3 4 7 10 11 11 10 8 8 9 9 9 8 8 8 8 7 7 6 8 8 7 8 7 6 6 6 6 6 6 4 3 2 2
6 6 6 4 4 2 2 3 1 4 2 3 6 9 8 5 5 4 6 9 9 8 7 8 8 8 7 6 6 8 7 7 6 5 5 5 5 5 5 4 3 2 2 2
5 6 5 3 2 2 2 4 1 1 2 4 6 7 5 3 5 8 9 9 8 8 8 8 8 7 5 5 6 7 6 5 4 4 5 5 4 4 4 3 2 2 2 3
3 3 2 3 2 2 4 2 2 3 2 5 6 7 9 10 11 10 9 9 8 8 8 7 7 6 4 4 6 6 4 3 3 4 4 4 3 3 3 3 2 2 2 2
2 4 5 4 4 3 2 2 2 4 5 4 6 9 13 12 11 10 9 8 7 7 6 6 7 6 4 4 5 5 2 2 4 4 3 2 2 2 2 2 2 1 2 1
1 2 4 3 1 1 3 3 3 4 5 7 9 11 12 12 11 10 8 7 7 6 6 5 6 5 4 3 3 2 1 2 3 3 1 1 1 1 1 1 1 1 1 0
3 3 4 2 2 3 2 3 5 7 10 11 10 9 10 12 11 9 8 7 6 5 4 4 5 4 2 1 1 1 1 2 2 2 1 0 0 1 0 0 0 1 1 2
3 5 6 6 7 6 4 5 6 9 9 11 11 9 8 9 9 8 7 5 5 5 4 4 3 2 1 1 1 1 1 2 2 1 1 1 1 1 1 1 1 3 1 1
Wind_Direction
108 100 188 210 197 202 221 281 291 275 277 302 286 288 302 310 210 218 209 200 201 205 202 182 180 179 177 182 184 183 180 174 167 172 177 179 178 169 169 168 173 170 163 166
62 234 225 207 187 199 231 283 292 295 312 279 303 333 349 24 21 331 192 200 204 189 168 167 166 167 181 185 186 186 183 176 178 182 172 160 137 139 138 133 131 137 145 151
182 234 201 163 188 204 238 225 251 281 331 357 19 1 17 26 39 43 48 48 48 74 72 65 83 135 162 177 190 187 185 185 181 163 136 117 108 112 133 141 126 111 123 131
222 246 195 191 217 180 257 234 225 264 351 313 38 5 354 21 46 46 44 45 42 40 45 42 36 29 21 351 186 177 177 178 171 162 161 162 173 173 162 141 128 117 114 117
237 218 190 211 223 182 221 235 217 249 197 302 348 121 320 13 46 47 47 46 43 42 46 44 38 33 30 25 38 115 146 154 158 161 164 163 155 138 125 123 122 108 99 102
240 232 204 214 227 194 199 63 45 46 79 330 282 128 15 16 35 56 51 45 42 42 44 43 39 37 35 37 44 62 106 125 141 144 148 156 153 143 137 137 133 120 105 92
308 291 242 197 239 101 117 97 36 11 32 250 336 94 75 49 59 69 62 50 42 41 43 41 37 35 34 37 42 55 86 96 107 118 124 133 137 136 139 140 127 119 105 92
309 303 279 192 186 184 170 143 157 182 197 267 27 90 88 76 76 74 67 58 49 43 42 42 38 35 35 37 42 56 72 77 83 92 94 97 102 106 106 105 108 104 98 93
212 279 300 281 207 145 141 171 161 129 138 83 72 103 113 100 82 71 61 53 49 45 44 44 42 40 39 40 41 51 66 68 69 78 84 82 85 92 96 95 93 93 94 95
182 272 310 321 48 31 124 135 99 111 133 125 86 96 97 138 115 94 74 58 51 48 46 44 43 43 43 44 45 49 57 64 66 70 76 82 84 86 90 91 90 90 88 88
141 154 334 24 38 353 54 72 92 98 129 138 138 129 349 153 133 119 95 68 54 51 48 45 44 45 49 50 51 52 55 62 66 70 75 78 77 79 81 82 82 83 82 83
105 105 29 338 311 348 96 108 128 134 143 123 127 124 18 106 109 111 103 86 69 61 57 52 48 48 49 52 55 57 59 63 67 74 78 78 76 77 77 77 76 77 75 74
104 89 61 1 350 6 43 41 82 108 108 126 135 149 99 104 102 103 104 95 83 75 68 64 58 54 52 52 56 61 64 68 69 73 77 77 77 78 78 79 79 78 78 76
101 76 124 166 227 5 33 19 50 97 118 141 155 143 147 131 122 110 100 92 83 77 78 76 71 65 63 60 60 62 63 66 70 72 75 76 76 78 80 81 81 82 83 81
77 71 65 58 56 78 63 38 41 68 123 143 142 137 149 139 129 118 110 105 95 83 77 75 74 70 67 65 63 64 64 64 70 74 75 76 77 80 82 82 82 83 83 86
59 100 77 56 56 71 56 29 30 45 56 96 109 97 93 103 100 101 103 104 98 92 89 85 81 76 72 70 68 67 66 65 71 75 77 77 78 78 80 83 86 87 87 86
60 99 92 91 306 43 31 359 18 40 23 93 135 129 125 106 96 97 104 105 102 99 94 89 82 75 72 70 73 74 73 71 73 76 78 79 81 82 84 92 92 92 90 89
111 93 99 85 52 60 281 5 74 81 51 58 94 101 103 99 87 75 85 102 103 98 94 89 84 79 72 71 72 76 76 77 80 80 81 83 85 86 85 87 89 90 90 93
103 119 99 93 89 82 284 19 18 103 74 73 107 111 109 109 90 67 70 87 93 94 92 88 85 85 83 78 81 84 80 78 82 83 82 83 88 90 89 88 87 84 87 79
50 71 93 97 116 201 259 325 325 110 113 136 130 132 135 130 110 105 94 94 93 90 89 91 90 86 82 78 86 88 84 84 85 87 87 86 91 95 94 92 83 63 66 51
23 34 64 89 108 275 303 315 48 141 227 153 141 138 127 97 111 121 110 98 94 92 92 92 89 85 82 87 92 90 87 85 89 91 88 85 89 99 101 87 67 66 62 53
130 105 108 112 97 268 328 22 122 176 104 107 113 116 113 111 111 111 108 104 100 96 93 93 92 83 75 90 98 93 85 81 88 90 88 85 81 80 95 91 73 62 65 58
131 173 165 164 194 247 336 67 90 121 112 112 118 124 125 123 119 114 109 105 100 98 94 92 97 88 72 79 102 102 99 103 99 92 89 78 66 58 81 102 99 74 68 64
120 126 106 101 107 72 68 73 70 86 106 115 123 127 126 124 122 117 111 106 102 99 97 98 97 92 82 81 92 110 122 122 117 112 103 81 76 50 48 66 118 139 148 143
167 123 103 111 151 107 70 93 104 99 104 108 109 112 121 123 121 118 113 110 108 104 98 100 103 105 107 108 103 130 144 134 127 132 127 94 200 222 120 69 70 203 215 201
191 164 161 201 196 165 167 140 129 122 122 125 120 110 111 119 119 116 113 114 115 111 108 108 110 119 129 140 263 283 188 157 158 188 241 239 243 239 192 150 61 39 51 115